Flag for Brazil Weather past 2 weeks in Florianópolis, Santa Catarina, Brazil

Now
63 °F

Scattered clouds.


Feels Like: 63 °F
Forecast: 61 / 72 °F
Wind: 6 mph from North

Location: Florianopolis Aeroporto

Current Time: Jul 3, 2015 at 8:27:13 AM

Latest Report: Jul 3, 2015 at 8:00 AM


Visibility: N/A

Pressure: 29.92 "Hg

Humidity: 94%

Dew point: 61 °F

Location of FlorianópolisLocation

Historic Weather in Florianópolis — Graph

°F

Florianópolis temperature yesterday

Maximum temperature yesterday: 68 °F (at 12:00 PM)
Minimum temperature yesterday: 61 °F (at 3:00 AM)
Average temperature yesterday: 64 °F

Past Weeks' High & Low Weather Summary

 TemperatureHumidityPressure
High79 °F (Jun 30, 1:00 PM)100% (Jun 26, 7:00 AM)30.54 "Hg (Jun 26, 7:00 AM)
Low52 °F (Jun 19, 10:00 PM)48% (Jun 19, 11:00 AM)29.86 "Hg (Jun 30, 2:00 PM)
Average64 °F77%30.24 "Hg
* Reported Jun 18 7:00 AM — Jul 3 7:00 AM, Florianópolis, Weather by CustomWeather, © 2015

Note: Actual official high and low records may vary slightly from our data, if they occured in-between our weather recording intervals... More about our weather records

Advertising

Florianópolis weather history for previous 24 hours

 ConditionsComfort  
Time TempWeatherWind HumidityBarometerVisibility
7:00 AM
Fri, Jul 3
63 °FBroken clouds.3 mph94%29.92 "HgN/A
6:00 AM63 °FPassing clouds.5 mph94%29.95 "Hg5 mi
5:00 AM63 °FLight rain. Passing clouds.3 mph94%29.98 "Hg5 mi
4:00 AM63 °FPassing clouds.No wind94%29.95 "HgN/A
3:00 AM64 °FPassing clouds.2 mph88%29.98 "HgN/A
2:00 AM64 °FPassing clouds.3 mph83%30.01 "HgN/A
1:00 AM64 °FPassing clouds.No wind83%30.01 "HgN/A
12:00 AM64 °FPassing clouds.3 mph83%30.04 "HgN/A
11:00 PM
Thu, Jul 2
64 °FPassing clouds.2 mph83%30.04 "HgN/A
10:00 PM64 °FPassing clouds.3 mph83%30.07 "HgN/A
9:00 PM64 °FPassing clouds.3 mph83%30.07 "HgN/A
8:00 PM64 °FPassing clouds.No wind83%30.07 "HgN/A
7:00 PM64 °FPassing clouds.No wind83%30.07 "HgN/A
6:00 PM64 °FPassing clouds.No wind83%30.07 "HgN/A
5:00 PM64 °FPassing clouds.5 mph83%30.04 "HgN/A
4:00 PM66 °FPartly sunny.7 mph78%30.07 "HgN/A
3:00 PM66 °FPartly sunny.7 mph73%30.09 "HgN/A
2:00 PM68 °FPartly sunny.5 mph69%30.12 "HgN/A
1:00 PM68 °FPartly sunny.3 mph64%30.12 "HgN/A
12:00 PM68 °FScattered clouds.3 mph64%30.18 "HgN/A
11:00 AM66 °FPartly sunny.3 mph68%30.18 "HgN/A
10:00 AM64 °FBroken clouds.2 mph73%30.21 "HgN/A
9:00 AM63 °FPartly sunny.No wind77%30.18 "HgN/A
8:00 AM63 °FPartly sunny.No wind77%30.18 "HgN/A
Weather by CustomWeather, © 2015

See weather overviewHow to use our weather pages